Starlink 31476

operational
NORAD ID: 59523 Int'l Des: 2024-073 Owner: SPXS Country: US Constellation: starlink
LEOCIRCULAR

Über Starlink 31476

Beschreibung wird geladen...

Live-Position

3D-Globus wird geladen...

Nächste Überflüge

Höhenverlauf

Altitude vs Time

uPlot chart will show altitude changes over time

Zweizeiliger Elementsatz

1 59523U 24073N 26034.36004793 -.00011150 00000-0 -39565-3 0 9998
2 59523 42.9978 152.0398 0001316 285.9460 74.1247 15.27628939100927
Epoch: 3. Feb. 2026 • Age: 27 hours

Aktueller Status

Höhe 486.1 km
Geschwindigkeit 7.62 km/s
Subsatellitenpunkt -18.11°S, 177.27°W
Startdatum 17. Apr. 2024
Alter 1.7 years
Typ internet

Technische Details

Klassifizierung Payload
Masse 730.00 kg
Trockenmasse 700.00 kg
Gesamtmasse 730.00 kg
Länge 0.30 m
Durchmesser 4.10 m
Spannweite 29.00 m
Form Box + pan
Hersteller SPXS
Bus-Typ Starlink V2M
Phasenstatus In Orbit
Besitzer/Staat SPXS/US

Große Konstellationen

Loading constellations...